Flag for U.S.A. Weather past 2 weeks in Irving, Texas, U.S.A.

Now
82 °F

Partly sunny.


Feels Like: 86 °F
Forecast: 78 / 91 °F
Wind: 10 mph from Southwest

Location: Dallas / Fort Worth International Airport

Current Time: Jul 4, 2015 at 9:49:50 AM

Latest Report: Jul 4, 2015 at 8:53 AM


Visibility: 10 mi

Pressure: 29.94 "Hg

Humidity: 70%

Dew point: 71 °F

Location of IrvingLocation

Historic Weather in Irving — Graph

°F

Irving temperature yesterday

Maximum temperature yesterday: 92 °F (at 4:53 PM)
Minimum temperature yesterday: 79 °F (at 6:53 AM)
Average temperature yesterday: 85 °F

Past Weeks' High & Low Weather Summary

 TemperatureHumidityPressure
High95 °F (Jun 24, 3:53 PM)94% (Jun 26, 8:04 PM)30.14 "Hg (Jun 26, 8:04 PM)
Low72 °F (Jun 30, 3:53 AM)29% (Jun 28, 6:53 PM)29.83 "Hg (Jul 2, 7:53 PM)
Average84 °F63%29.97 "Hg
* Reported Jun 19 7:53 AM — Jul 4 7:53 AM, Irving, Weather by CustomWeather, © 2015

Note: Actual official high and low records may vary slightly from our data, if they occured in-between our weather recording intervals... More about our weather records

Advertising

Irving weather history for previous 24 hours

 ConditionsComfort  
Time TempWeatherWind HumidityBarometerVisibility
7:53 AM
Sat, Jul 4
81 °FBroken clouds.10 mph69%29.93 "Hg10 mi
6:53 AM78 °FPassing clouds.8 mph76%29.93 "Hg10 mi
5:53 AM79 °FPassing clouds.10 mph74%29.91 "Hg10 mi
4:53 AM80 °FPassing clouds.13 mph71%29.90 "Hg10 mi
3:53 AM81 °FPassing clouds.12 mph72%29.90 "Hg10 mi
2:53 AM82 °FPassing clouds.14 mph70%29.90 "Hg10 mi
1:53 AM82 °FPassing clouds.16 mph70%29.90 "Hg10 mi
12:53 AM83 °FPassing clouds.14 mph65%29.90 "Hg10 mi
11:53 PM
Fri, Jul 3
83 °FPassing clouds.10 mph63%29.90 "Hg10 mi
10:53 PM84 °FPartly cloudy.10 mph59%29.89 "Hg10 mi
9:53 PM83 °FPassing clouds.7 mph61%29.88 "Hg10 mi
8:53 PM86 °FPartly sunny.6 mph53%29.87 "Hg10 mi
7:53 PM88 °FBroken clouds.13 mph48%29.85 "Hg10 mi
6:53 PM90 °FPartly sunny.12 mph45%29.87 "Hg10 mi
5:53 PM91 °FBroken clouds.14 mph47%29.86 "Hg10 mi
4:53 PM92 °FBroken clouds.10 mph43%29.88 "Hg10 mi
3:53 PM91 °FBroken clouds.12 mph45%29.90 "Hg10 mi
2:53 PM91 °FBroken clouds.13 mph45%29.90 "Hg10 mi
1:53 PM89 °FPartly sunny.10 mph50%29.92 "Hg10 mi
12:53 PM89 °FMore clouds than sun.14 mph52%29.93 "Hg10 mi
11:53 AM87 °FMostly cloudy.18 mph55%29.94 "Hg10 mi
10:53 AM85 °FMostly cloudy.17 mph61%29.94 "Hg10 mi
9:53 AM82 °FOvercast.15 mph70%29.95 "Hg10 mi
Weather by CustomWeather, © 2015

See weather overviewHow to use our weather pages